| time (UTC) | temp C | wind direction | speed KPH | gust KPH | rain 1hr cm | rain 24hr cm | rain mn cm | humidity % | barometer mb |
| 20260906215024 | 36 | 110 | 12.9 | 22.5 | 0.00 | 0.00 | 0.00 | 32 | 1011.9 |
| 20260906214503 | 36 | 115 | 14.5 | 29.0 | 0.00 | 0.00 | 0.00 | 32 | 1011.9 |
| 20260906214003 | 36 | 121 | 14.5 | 29.0 | 0.00 | 0.00 | 0.00 | 32 | 1011.9 |
| 20260906213503 | 36 | 118 | 14.5 | 25.7 | 0.00 | 0.00 | 0.00 | 32 | 1011.9 |
| 20260906213003 | 36 | 111 | 16.1 | 27.4 | 0.00 | 0.00 | 0.00 | 32 | 1011.9 |
| 20260906212503 | 36 | 107 | 14.5 | 27.4 | 0.00 | 0.00 | 0.00 | 32 | 1011.9 |
| 20260906212003 | 36 | 100 | 14.5 | 24.1 | 0.00 | 0.00 | 0.00 | 33 | 1012.0 |
| 20260906211524 | 36 | 119 | 16.1 | 29.0 | 0.00 | 0.00 | 0.00 | 32 | 1012.0 |
| 20260906211003 | 36 | 123 | 16.1 | 29.0 | 0.00 | 0.00 | 0.00 | 33 | 1012.3 |
| 20260906210503 | 36 | 108 | 14.5 | 25.7 | 0.00 | 0.00 | 0.00 | 33 | 1012.3 |
| 20260906210003 | 36 | 112 | 12.9 | 22.5 | 0.00 | 0.00 | 0.00 | 33 | 1012.3 |
| 20260906205524 | 36 | 113 | 12.9 | 27.4 | 0.00 | 0.00 | 0.00 | 33 | 1012.5 |
| 20260906205003 | 36 | 120 | 12.9 | 27.4 | 0.00 | 0.00 | 0.00 | 33 | 1012.5 |
| 20260906204503 | 36 | 117 | 12.9 | 24.1 | 0.00 | 0.00 | 0.00 | 33 | 1012.6 |
| 20260906204003 | 36 | 106 | 14.5 | 25.7 | 0.00 | 0.00 | 0.00 | 34 | 1012.8 |
| 20260906203503 | 36 | 108 | 12.9 | 25.7 | 0.00 | 0.00 | 0.00 | 34 | 1012.8 |
| 20260906203003 | 36 | 122 | 12.9 | 27.4 | 0.00 | 0.00 | 0.00 | 34 | 1012.7 |
| 20260906202503 | 36 | 121 | 14.5 | 29.0 | 0.00 | 0.00 | 0.00 | 34 | 1012.9 |
| 20260906202003 | 36 | 106 | 12.9 | 29.0 | 0.00 | 0.00 | 0.00 | 35 | 1012.8 |
| 20260906201503 | 36 | 113 | 12.9 | 24.1 | 0.00 | 0.00 | 0.00 | 35 | 1012.8 |
| 20260906201024 | 36 | 126 | 12.9 | 22.5 | 0.00 | 0.00 | 0.00 | 36 | 1012.9 |
| 20260906200503 | 35 | 116 | 9.7 | 20.9 | 0.00 | 0.00 | 0.00 | 35 | 1013.1 |
| 20260906200003 | 35 | 108 | 9.7 | 17.7 | 0.00 | 0.00 | 0.00 | 36 | 1013.0 |
| 20260906195503 | 36 | 107 | 9.7 | 19.3 | 0.00 | 0.00 | 0.00 | 36 | 1013.1 |
| 20260906195003 | 36 | 128 | 11.3 | 19.3 | 0.00 | 0.00 | 0.00 | 35 | 1013.2 |
| 20260906194503 | 36 | 156 | 9.7 | 19.3 | 0.00 | 0.00 | 0.00 | 36 | 1013.3 |
| 20260906194003 | 36 | 151 | 11.3 | 20.9 | 0.00 | 0.00 | 0.00 | 36 | 1013.3 |
| 20260906193503 | 36 | 137 | 12.9 | 20.9 | 0.00 | 0.00 | 0.00 | 36 | 1013.4 |
| 20260906193003 | 36 | 117 | 12.9 | 24.1 | 0.00 | 0.00 | 0.00 | 35 | 1013.6 |
| 20260906192503 | 36 | 98 | 11.3 | 24.1 | 0.00 | 0.00 | 0.00 | 36 | 1013.6 |
| 20260906192003 | 36 | 105 | 9.7 | 22.5 | 0.00 | 0.00 | 0.00 | 37 | 1013.6 |
| 20260906191503 | 36 | 128 | 8.0 | 22.5 | 0.00 | 0.00 | 0.00 | 37 | 1013.6 |
| 20260906191003 | 35 | 136 | 8.0 | 27.4 | 0.00 | 0.00 | 0.00 | 37 | 1013.5 |
| 20260906190503 | 35 | 117 | 11.3 | 27.4 | 0.00 | 0.00 | 0.00 | 36 | 1013.8 |
| 20260906190003 | 35 | 100 | 12.9 | 24.1 | 0.00 | 0.00 | 0.00 | 37 | 1013.8 |
| 20260906185503 | 35 | 128 | 12.9 | 24.1 | 0.00 | 0.00 | 0.00 | 38 | 1013.9 |
| 20260906185003 | 35 | 161 | 12.9 | 24.1 | 0.00 | 0.00 | 0.00 | 38 | 1013.9 |
| 20260906184524 | 35 | 131 | 11.3 | 24.1 | 0.00 | 0.00 | 0.00 | 38 | 1014.0 |
| 20260906184003 | 35 | 110 | 12.9 | 25.7 | 0.00 | 0.00 | 0.00 | 38 | 1014.1 |
| 20260906183524 | 35 | 127 | 14.5 | 25.7 | 0.00 | 0.00 | 0.00 | 37 | 1014.2 |
| 20260906183003 | 35 | 141 | 12.9 | 25.7 | 0.00 | 0.00 | 0.00 | 37 | 1014.3 |
| 20260906182503 | 35 | 124 | 6.4 | 22.5 | 0.00 | 0.00 | 0.00 | 38 | 1014.3 |
| 20260906182003 | 35 | 84 | 6.4 | 16.1 | 0.00 | 0.00 | 0.00 | 39 | 1014.5 |
| 20260906181524 | 35 | 90 | 9.7 | 17.7 | 0.00 | 0.00 | 0.00 | 39 | 1014.6 |
| 20260906181003 | 35 | 88 | 9.7 | 17.7 | 0.00 | 0.00 | 0.00 | 38 | 1014.6 |
| 20260906180503 | 35 | 82 | 8.0 | 22.5 | 0.00 | 0.00 | 0.00 | 38 | 1014.7 |
| 20260906180003 | 35 | 89 | 9.7 | 22.5 | 0.00 | 0.00 | 0.00 | 39 | 1014.7 |
| 20260906175503 | 35 | 134 | 9.7 | 20.9 | 0.00 | 0.00 | 0.00 | 39 | 1014.7 |
| 20260906175024 | 35 | 180 | 9.7 | 27.4 | 0.00 | 0.00 | 0.00 | 39 | 1014.8 |
| 20260906174503 | 34 | 168 | 11.3 | 27.4 | 0.00 | 0.00 | 0.00 | 39 | 1014.9 |
| 20260906174003 | 34 | 134 | 9.7 | 22.5 | 0.00 | 0.00 | 0.00 | 39 | 1015.0 |
| 20260906173503 | 34 | 108 | 11.3 | 22.5 | 0.00 | 0.00 | 0.00 | 39 | 1015.0 |
| 20260906173003 | 34 | 123 | 12.9 | 24.1 | 0.00 | 0.00 | 0.00 | 39 | 1015.2 |
| 20260906172503 | 34 | 154 | 9.7 | 24.1 | 0.00 | 0.00 | 0.00 | 39 | 1015.1 |
| 20260906172024 | 34 | 125 | 6.4 | 20.9 | 0.00 | 0.00 | 0.00 | 39 | 1015.2 |
| 20260906171503 | 34 | 113 | 6.4 | 20.9 | 0.00 | 0.00 | 0.00 | 39 | 1015.2 |
| 20260906171003 | 34 | 103 | 8.0 | 16.1 | 0.00 | 0.00 | 0.00 | 39 | 1015.2 |
| 20260906170503 | 34 | 89 | 9.7 | 24.1 | 0.00 | 0.00 | 0.00 | 40 | 1015.5 |
| 20260906170024 | 34 | 105 | 9.7 | 24.1 | 0.00 | 0.00 | 0.00 | 39 | 1015.5 |
| 20260906165503 | 34 | 124 | 6.4 | 16.1 | 0.00 | 0.00 | 0.00 | 40 | 1015.6 |
| 20260906165024 | 34 | 145 | 4.8 | 14.5 | 0.00 | 0.00 | 0.00 | 40 | 1015.7 |
| 20260906164524 | 34 | 152 | 8.0 | 20.9 | 0.00 | 0.00 | 0.00 | 40 | 1015.7 |
| 20260906164003 | 33 | 134 | 8.0 | 20.9 | 0.00 | 0.00 | 0.00 | 41 | 1015.7 |
| 20260906163524 | 33 | 145 | 6.4 | 17.7 | 0.00 | 0.00 | 0.00 | 41 | 1015.7 |
| 20260906163003 | 33 | 182 | 4.8 | 14.5 | 0.00 | 0.00 | 0.00 | 41 | 1015.7 |
| 20260906162503 | 33 | 211 | 3.2 | 14.5 | 0.00 | 0.00 | 0.00 | 41 | 1015.7 |
| 20260906162003 | 33 | 195 | 4.8 | 9.7 | 0.00 | 0.00 | 0.00 | 42 | 1015.8 |
| 20260906161503 | 33 | 166 | 6.4 | 12.9 | 0.00 | 0.00 | 0.00 | 42 | 1015.7 |
| 20260906161024 | 33 | 159 | 4.8 | 12.9 | 0.00 | 0.00 | 0.00 | 42 | 1015.7 |
| 20260906160503 | 33 | 153 | 1.6 | 11.3 | 0.00 | 0.00 | 0.00 | 43 | 1015.6 |
| 20260906160003 | 33 | 141 | 3.2 | 8.0 | 0.00 | 0.00 | 0.00 | 43 | 1015.6 |
| 20260906155524 | 33 | 140 | 1.6 | 6.4 | 0.00 | 0.00 | 0.00 | 44 | 1015.6 |
| 20260906155024 | 33 | 162 | 1.6 | 8.0 | 0.00 | 0.00 | 0.00 | 44 | 1015.6 |
| 20260906154503 | 32 | 174 | 3.2 | 9.7 | 0.00 | 0.00 | 0.00 | 45 | 1015.5 |
| 20260906154024 | 32 | 172 | 4.8 | 11.3 | 0.00 | 0.00 | 0.00 | 45 | 1015.5 |
| 20260906153503 | 32 | 175 | 4.8 | 12.9 | 0.00 | 0.00 | 0.00 | 46 | 1015.6 |
| 20260906153003 | 32 | 178 | 4.8 | 12.9 | 0.00 | 0.00 | 0.00 | 45 | 1015.5 |
| 20260906152503 | 31 | 166 | 4.8 | 11.3 | 0.00 | 0.00 | 0.00 | 47 | 1015.5 |
| 20260906152003 | 31 | 153 | 4.8 | 11.3 | 0.00 | 0.00 | 0.00 | 48 | 1015.3 |
| 20260906151504 | 31 | 166 | 6.4 | 11.3 | 0.00 | 0.00 | 0.00 | 48 | 1015.4 |
| 20260906151003 | 30 | 173 | 6.4 | 11.3 | 0.00 | 0.00 | 0.00 | 49 | 1015.4 |
| 20260906150503 | 30 | 163 | 8.0 | 14.5 | 0.00 | 0.00 | 0.00 | 50 | 1015.3 |
| 20260906150024 | 30 | 165 | 8.0 | 14.5 | 0.00 | 0.00 | 0.00 | 51 | 1015.4 |
| 20260906145503 | 29 | 163 | 9.7 | 14.5 | 0.00 | 0.00 | 0.00 | 52 | 1015.4 |
| 20260906145024 | 28 | 154 | 9.7 | 16.1 | 0.00 | 0.00 | 0.00 | 52 | 1015.5 |
| 20260906144503 | 28 | 149 | 9.7 | 19.3 | 0.00 | 0.00 | 0.00 | 53 | 1015.5 |
| 20260906144024 | 28 | 150 | 9.7 | 19.3 | 0.00 | 0.00 | 0.00 | 55 | 1015.5 |
| 20260906143503 | 27 | 159 | 11.3 | 19.3 | 0.00 | 0.00 | 0.00 | 57 | 1015.5 |
| 20260906143003 | 27 | 160 | 9.7 | 19.3 | 0.00 | 0.00 | 0.00 | 57 | 1015.5 |
| 20260906142503 | 27 | 153 | 6.4 | 14.5 | 0.00 | 0.00 | 0.00 | 58 | 1015.4 |
| 20260906142003 | 26 | 151 | 8.0 | 12.9 | 0.00 | 0.00 | 0.00 | 58 | 1015.5 |
| 20260906141503 | 26 | 150 | 8.0 | 12.9 | 0.00 | 0.00 | 0.00 | 58 | 1015.5 |
| 20260906141003 | 26 | 148 | 6.4 | 12.9 | 0.00 | 0.00 | 0.00 | 59 | 1015.5 |
| 20260906140524 | 26 | 154 | 6.4 | 12.9 | 0.00 | 0.00 | 0.00 | 59 | 1015.3 |
| 20260906140024 | 26 | 157 | 6.4 | 9.7 | 0.00 | 0.00 | 0.00 | 60 | 1015.3 |
| 20260906135503 | 26 | 151 | 6.4 | 9.7 | 0.00 | 0.00 | 0.00 | 61 | 1015.3 |
| 20260906135003 | 26 | 145 | 4.8 | 9.7 | 0.00 | 0.00 | 0.00 | 61 | 1015.2 |
| 20260906134503 | 25 | 143 | 4.8 | 9.7 | 0.00 | 0.00 | 0.00 | 62 | 1015.2 |
| 20260906134024 | 25 | 143 | 4.8 | 9.7 | 0.00 | 0.00 | 0.00 | 62 | 1015.1 |
| 20260906133503 | 25 | 144 | 4.8 | 9.7 | 0.00 | 0.00 | 0.00 | 62 | 1015.1 |
| 20260906133024 | 25 | 144 | 4.8 | 9.7 | 0.00 | 0.00 | 0.00 | 62 | 1015.2 |
| 20260906132524 | 25 | 144 | 4.8 | 9.7 | 0.00 | 0.00 | 0.00 | 62 | 1015.1 |
| 20260906132024 | 25 | 153 | 6.4 | 9.7 | 0.00 | 0.00 | 0.00 | 61 | 1015.1 |
| 20260906131524 | 25 | 159 | 6.4 | 9.7 | 0.00 | 0.00 | 0.00 | 60 | 1015.1 |
| 20260906131003 | 25 | 159 | 4.8 | 9.7 | 0.00 | 0.00 | 0.00 | 60 | 1014.9 |
| 20260906130503 | 25 | 159 | 3.2 | 6.4 | 0.00 | 0.00 | 0.00 | 60 | 1014.8 |
| 20260906130003 | 25 | 159 | 3.2 | 6.4 | 0.00 | 0.00 | 0.00 | 61 | 1014.7 |
| 20260906125503 | 25 | 159 | 3.2 | 8.0 | 0.00 | 0.00 | 0.00 | 61 | 1014.6 |
| 20260906125003 | 24 | 159 | 3.2 | 8.0 | 0.00 | 0.00 | 0.00 | 62 | 1014.6 |
| 20260906124524 | 24 | 159 | 3.2 | 6.4 | 0.00 | 0.00 | 0.00 | 62 | 1014.5 |
| 20260906124003 | 24 | 159 | 1.6 | 6.4 | 0.00 | 0.00 | 0.00 | 62 | 1014.5 |
| 20260906123503 | 24 | 159 | 1.6 | 6.4 | 0.00 | 0.00 | 0.00 | 62 | 1014.4 |
| 20260906123003 | 24 | 159 | 3.2 | 6.4 | 0.00 | 0.00 | 0.00 | 62 | 1014.3 |
| 20260906122524 | 24 | 159 | 3.2 | 8.0 | 0.00 | 0.00 | 0.00 | 62 | 1014.4 |
| 20260906122003 | 24 | 159 | 6.4 | 11.3 | 0.00 | 0.00 | 0.00 | 62 | 1014.4 |
| 20260906121524 | 24 | 159 | 8.0 | 11.3 | 0.00 | 0.00 | 0.00 | 62 | 1014.4 |
| 20260906121003 | 24 | 160 | 9.7 | 12.9 | 0.00 | 0.00 | 0.00 | 62 | 1014.4 |
| 20260906120524 | 24 | 162 | 9.7 | 12.9 | 0.00 | 0.00 | 0.00 | 61 | 1014.3 |
| 20260906120003 | 24 | 163 | 8.0 | 12.9 | 0.00 | 0.00 | 0.00 | 61 | 1014.2 |
| 20260906115503 | 24 | 164 | 6.4 | 9.7 | 0.00 | 0.00 | 0.00 | 61 | 1014.1 |
| 20260906115003 | 24 | 164 | 6.4 | 9.7 | 0.00 | 0.00 | 0.00 | 61 | 1014.1 |
| 20260906114524 | 24 | 164 | 8.0 | 9.7 | 0.00 | 0.00 | 0.00 | 60 | 1014.0 |
| 20260906114024 | 25 | 164 | 8.0 | 9.7 | 0.00 | 0.00 | 0.00 | 60 | 1013.8 |
| 20260906113503 | 25 | 163 | 6.4 | 9.7 | 0.00 | 0.00 | 0.00 | 60 | 1013.9 |
| 20260906113003 | 25 | 163 | 6.4 | 9.7 | 0.00 | 0.00 | 0.00 | 60 | 1013.9 |
| 20260906112503 | 25 | 163 | 6.4 | 9.7 | 0.00 | 0.00 | 0.00 | 60 | 1013.9 |
| 20260906112003 | 25 | 163 | 6.4 | 9.7 | 0.00 | 0.00 | 0.00 | 60 | 1013.9 |
| 20260906111503 | 25 | 163 | 6.4 | 9.7 | 0.00 | 0.00 | 0.00 | 60 | 1013.8 |
| 20260906111003 | 25 | 163 | 6.4 | 9.7 | 0.00 | 0.00 | 0.00 | 60 | 1013.6 |
| 20260906110503 | 25 | 163 | 4.8 | 8.0 | 0.00 | 0.00 | 0.00 | 60 | 1013.6 |
| 20260906110003 | 25 | 163 | 3.2 | 8.0 | 0.00 | 0.00 | 0.00 | 60 | 1013.5 |
| 20260906105503 | 25 | 163 | 4.8 | 8.0 | 0.00 | 0.00 | 0.00 | 60 | 1013.5 |
| 20260906105003 | 25 | 163 | 4.8 | 8.0 | 0.00 | 0.00 | 0.00 | 59 | 1013.6 |
| 20260906104503 | 25 | 163 | 4.8 | 8.0 | 0.00 | 0.00 | 0.00 | 59 | 1013.5 |
| 20260906104003 | 25 | 163 | 4.8 | 8.0 | 0.00 | 0.00 | 0.00 | 59 | 1013.4 |
| 20260906103503 | 25 | 163 | 6.4 | 9.7 | 0.00 | 0.00 | 0.00 | 59 | 1013.5 |
| 20260906103003 | 25 | 163 | 6.4 | 9.7 | 0.00 | 0.00 | 0.00 | 58 | 1013.4 |
| 20260906102503 | 25 | 163 | 6.4 | 9.7 | 0.00 | 0.00 | 0.00 | 58 | 1013.4 |
| 20260906102003 | 25 | 163 | 6.4 | 9.7 | 0.00 | 0.00 | 0.00 | 58 | 1013.5 |
| 20260906101503 | 25 | 163 | 6.4 | 9.7 | 0.00 | 0.00 | 0.00 | 58 | 1013.5 |
| 20260906101003 | 25 | 161 | 6.4 | 9.7 | 0.00 | 0.00 | 0.00 | 57 | 1013.6 |
| 20260906100503 | 25 | 158 | 8.0 | 11.3 | 0.00 | 0.00 | 0.00 | 57 | 1013.5 |
| 20260906100024 | 25 | 159 | 8.0 | 14.5 | 0.00 | 0.00 | 0.00 | 57 | 1013.5 |
| 20260906095503 | 25 | 161 | 8.0 | 14.5 | 0.00 | 0.00 | 0.00 | 57 | 1013.4 |
| 20260906095003 | 25 | 162 | 6.4 | 9.7 | 0.00 | 0.00 | 0.00 | 57 | 1013.4 |
| 20260906094503 | 25 | 162 | 6.4 | 9.7 | 0.00 | 0.00 | 0.00 | 57 | 1013.5 |
| 20260906094003 | 25 | 162 | 4.8 | 8.0 | 0.00 | 0.00 | 0.00 | 57 | 1013.5 |
| 20260906093503 | 25 | 162 | 4.8 | 8.0 | 0.00 | 0.00 | 0.00 | 56 | 1013.4 |
| 20260906093024 | 25 | 162 | 4.8 | 8.0 | 0.00 | 0.00 | 0.00 | 56 | 1013.4 |
| 20260906092503 | 26 | 162 | 6.4 | 8.0 | 0.00 | 0.00 | 0.00 | 56 | 1013.3 |
| 20260906092003 | 26 | 162 | 4.8 | 8.0 | 0.00 | 0.00 | 0.00 | 56 | 1013.3 |
| 20260906091503 | 26 | 162 | 6.4 | 8.0 | 0.00 | 0.00 | 0.00 | 56 | 1013.2 |
| 20260906091003 | 26 | 162 | 6.4 | 8.0 | 0.00 | 0.00 | 0.00 | 55 | 1013.0 |
| 20260906090503 | 26 | 163 | 6.4 | 9.7 | 0.00 | 0.00 | 0.00 | 55 | 1013.1 |
| 20260906090003 | 26 | 168 | 6.4 | 11.3 | 0.00 | 0.00 | 0.00 | 55 | 1013.2 |
| 20260906085503 | 26 | 165 | 8.0 | 12.9 | 0.00 | 0.00 | 0.00 | 55 | 1013.1 |
| 20260906085003 | 26 | 159 | 8.0 | 12.9 | 0.00 | 0.00 | 0.00 | 55 | 1013.1 |
| 20260906084503 | 26 | 157 | 8.0 | 12.9 | 0.00 | 0.00 | 0.00 | 55 | 1013.1 |
| 20260906084003 | 26 | 154 | 6.4 | 12.9 | 0.00 | 0.00 | 0.00 | 55 | 1013.0 |
| 20260906083503 | 26 | 155 | 6.4 | 11.3 | 0.00 | 0.00 | 0.00 | 55 | 1013.1 |
| 20260906083003 | 26 | 159 | 8.0 | 11.3 | 0.00 | 0.00 | 0.00 | 54 | 1013.1 |
| 20260906082524 | 26 | 158 | 8.0 | 14.5 | 0.00 | 0.00 | 0.00 | 54 | 1013.0 |
| 20260906082003 | 26 | 159 | 8.0 | 14.5 | 0.00 | 0.00 | 0.00 | 54 | 1013.0 |
| 20260906081503 | 26 | 161 | 8.0 | 12.9 | 0.00 | 0.00 | 0.00 | 53 | 1013.1 |
| 20260906081003 | 26 | 159 | 8.0 | 12.9 | 0.00 | 0.00 | 0.00 | 53 | 1013.3 |
| 20260906080503 | 27 | 157 | 8.0 | 12.9 | 0.00 | 0.00 | 0.00 | 53 | 1013.2 |
| 20260906080003 | 27 | 156 | 8.0 | 12.9 | 0.00 | 0.00 | 0.00 | 53 | 1013.2 |
| 20260906075503 | 27 | 153 | 8.0 | 11.3 | 0.00 | 0.00 | 0.00 | 52 | 1013.3 |
| 20260906075003 | 27 | 143 | 6.4 | 11.3 | 0.00 | 0.00 | 0.00 | 52 | 1013.4 |
| 20260906074524 | 27 | 137 | 6.4 | 11.3 | 0.00 | 0.00 | 0.00 | 52 | 1013.3 |
| 20260906074024 | 27 | 149 | 6.4 | 9.7 | 0.00 | 0.00 | 0.00 | 52 | 1013.3 |
| 20260906073503 | 27 | 152 | 6.4 | 11.3 | 0.00 | 0.00 | 0.00 | 51 | 1013.1 |
| 20260906073003 | 27 | 146 | 6.4 | 11.3 | 0.00 | 0.00 | 0.00 | 51 | 1013.1 |
| 20260906072503 | 27 | 150 | 6.4 | 11.3 | 0.00 | 0.00 | 0.00 | 51 | 1013.1 |
| 20260906072024 | 27 | 155 | 8.0 | 11.3 | 0.00 | 0.00 | 0.00 | 51 | 1013.2 |
| 20260906071503 | 27 | 155 | 8.0 | 14.5 | 0.00 | 0.00 | 0.00 | 51 | 1013.1 |
| 20260906071003 | 27 | 156 | 8.0 | 14.5 | 0.00 | 0.00 | 0.00 | 51 | 1013.2 |
| 20260906070503 | 27 | 157 | 8.0 | 16.1 | 0.00 | 0.00 | 0.00 | 50 | 1013.1 |
| 20260906070003 | 28 | 157 | 9.7 | 16.1 | 0.00 | 0.00 | 0.00 | 50 | 1013.1 |
| 20260906065503 | 28 | 157 | 9.7 | 17.7 | 0.00 | 0.00 | 0.00 | 50 | 1013.1 |
| 20260906065024 | 28 | 161 | 11.3 | 17.7 | 0.00 | 0.00 | 0.00 | 50 | 1013.1 |
| 20260906064503 | 28 | 161 | 9.7 | 17.7 | 0.00 | 0.00 | 0.00 | 49 | 1013.1 |
| 20260906064003 | 28 | 161 | 11.3 | 19.3 | 0.00 | 0.00 | 0.00 | 49 | 1013.1 |
| 20260906063503 | 28 | 161 | 11.3 | 19.3 | 0.00 | 0.00 | 0.00 | 49 | 1013.2 |
| 20260906063003 | 28 | 161 | 11.3 | 24.1 | 0.00 | 0.00 | 0.00 | 48 | 1013.2 |
| 20260906062503 | 28 | 162 | 11.3 | 24.1 | 0.00 | 0.00 | 0.00 | 48 | 1013.2 |
| 20260906062003 | 29 | 157 | 11.3 | 20.9 | 0.00 | 0.00 | 0.00 | 48 | 1013.2 |
| 20260906061503 | 29 | 155 | 11.3 | 19.3 | 0.00 | 0.00 | 0.00 | 48 | 1013.2 |
| 20260906061003 | 29 | 158 | 12.9 | 19.3 | 0.00 | 0.00 | 0.00 | 47 | 1013.2 |
| 20260906060503 | 29 | 158 | 12.9 | 20.9 | 0.00 | 0.00 | 0.00 | 47 | 1013.2 |
| 20260906060003 | 30 | 155 | 12.9 | 24.1 | 0.00 | 0.00 | 0.00 | 47 | 1013.3 |
| 20260906055503 | 30 | 154 | 12.9 | 24.1 | 0.00 | 0.00 | 0.00 | 47 | 1013.3 |
| 20260906055003 | 30 | 154 | 11.3 | 17.7 | 0.00 | 0.00 | 0.00 | 47 | 1013.3 |
| 20260906054524 | 30 | 155 | 11.3 | 19.3 | 0.00 | 0.00 | 0.00 | 47 | 1013.3 |
| 20260906054003 | 30 | 154 | 11.3 | 19.3 | 0.00 | 0.00 | 0.00 | 47 | 1013.3 |
| 20260906053503 | 29 | 149 | 9.7 | 17.7 | 0.00 | 0.00 | 0.00 | 47 | 1013.3 |
| 20260906053003 | 29 | 149 | 8.0 | 16.1 | 0.00 | 0.00 | 0.00 | 48 | 1013.3 |
| 20260906052524 | 29 | 145 | 6.4 | 14.5 | 0.00 | 0.00 | 0.00 | 48 | 1013.4 |
| 20260906052003 | 29 | 134 | 4.8 | 11.3 | 0.00 | 0.00 | 0.00 | 48 | 1013.5 |
| 20260906051524 | 29 | 129 | 6.4 | 14.5 | 0.00 | 0.00 | 0.00 | 48 | 1013.5 |
| 20260906051003 | 29 | 133 | 6.4 | 14.5 | 0.00 | 0.00 | 0.00 | 48 | 1013.5 |
| 20260906050503 | 29 | 128 | 6.4 | 12.9 | 0.00 | 0.00 | 0.00 | 48 | 1013.5 |
| 20260906050003 | 29 | 131 | 6.4 | 12.9 | 0.00 | 0.00 | 0.00 | 47 | 1013.6 |
| 20260906045503 | 29 | 147 | 8.0 | 14.5 | 0.00 | 0.00 | 0.00 | 47 | 1013.6 |
| 20260906045003 | 29 | 137 | 8.0 | 14.5 | 0.00 | 0.00 | 0.00 | 47 | 1013.6 |
| 20260906044503 | 30 | 125 | 6.4 | 14.5 | 0.00 | 0.00 | 0.00 | 47 | 1013.6 |
| 20260906044003 | 30 | 130 | 6.4 | 14.5 | 0.00 | 0.00 | 0.00 | 46 | 1013.7 |
| 20260906043503 | 30 | 126 | 6.4 | 14.5 | 0.00 | 0.00 | 0.00 | 46 | 1013.7 |
| 20260906043003 | 30 | 122 | 6.4 | 14.5 | 0.00 | 0.00 | 0.00 | 46 | 1013.7 |
| 20260906042524 | 30 | 126 | 6.4 | 12.9 | 0.00 | 0.00 | 0.00 | 46 | 1013.6 |
| 20260906042003 | 30 | 125 | 6.4 | 12.9 | 0.00 | 0.00 | 0.00 | 45 | 1013.6 |
| 20260906041503 | 30 | 115 | 6.4 | 14.5 | 0.00 | 0.00 | 0.00 | 45 | 1013.6 |
| 20260906041024 | 30 | 112 | 8.0 | 14.5 | 0.00 | 0.00 | 0.00 | 45 | 1013.6 |
| 20260906040503 | 30 | 111 | 8.0 | 12.9 | 0.00 | 0.00 | 0.00 | 45 | 1013.5 |
| 20260906040003 | 30 | 108 | 8.0 | 16.1 | 0.00 | 0.00 | 0.00 | 44 | 1013.5 |
| 20260906035503 | 30 | 115 | 8.0 | 16.1 | 0.00 | 0.00 | 0.00 | 44 | 1013.4 |
| 20260906035003 | 30 | 117 | 8.0 | 16.1 | 0.00 | 0.00 | 0.00 | 44 | 1013.4 |
| 20260906034503 | 30 | 109 | 11.3 | 16.1 | 0.00 | 0.00 | 0.00 | 43 | 1013.4 |
| 20260906034003 | 31 | 108 | 11.3 | 17.7 | 0.00 | 0.00 | 0.00 | 43 | 1013.4 |
| 20260906033503 | 31 | 110 | 11.3 | 19.3 | 0.00 | 0.00 | 0.00 | 43 | 1013.4 |
| 20260906033003 | 31 | 105 | 9.7 | 19.3 | 0.00 | 0.00 | 0.00 | 42 | 1013.3 |
| 20260906032503 | 31 | 104 | 9.7 | 16.1 | 0.00 | 0.00 | 0.00 | 42 | 1013.2 |
| 20260906032003 | 31 | 106 | 8.0 | 14.5 | 0.00 | 0.00 | 0.00 | 42 | 1013.1 |
| 20260906031524 | 31 | 109 | 8.0 | 14.5 | 0.00 | 0.00 | 0.00 | 42 | 1013.1 |
| 20260906031024 | 31 | 110 | 8.0 | 16.1 | 0.00 | 0.00 | 0.00 | 42 | 1013.0 |
| 20260906030503 | 31 | 111 | 8.0 | 16.1 | 0.00 | 0.00 | 0.00 | 41 | 1013.0 |
| 20260906030003 | 31 | 113 | 6.4 | 12.9 | 0.00 | 0.00 | 0.00 | 41 | 1012.8 |
| 20260906025503 | 31 | 111 | 6.4 | 14.5 | 0.00 | 0.00 | 0.00 | 41 | 1012.8 |
| 20260906025003 | 31 | 116 | 6.4 | 14.5 | 0.00 | 0.00 | 0.00 | 40 | 1012.6 |
| 20260906024503 | 31 | 123 | 4.8 | 12.9 | 0.00 | 0.00 | 0.00 | 40 | 1012.5 |
| 20260906024003 | 32 | 121 | 6.4 | 12.9 | 0.00 | 0.00 | 0.00 | 40 | 1012.5 |
| 20260906023503 | 32 | 119 | 6.4 | 12.9 | 0.00 | 0.00 | 0.00 | 40 | 1012.5 |
| 20260906023003 | 32 | 121 | 6.4 | 12.9 | 0.00 | 0.00 | 0.00 | 39 | 1012.5 |
| 20260906022503 | 32 | 114 | 4.8 | 11.3 | 0.00 | 0.00 | 0.00 | 39 | 1012.2 |
| 20260906022003 | 32 | 106 | 4.8 | 9.7 | 0.00 | 0.00 | 0.00 | 39 | 1012.1 |
| 20260906021503 | 32 | 112 | 4.8 | 12.9 | 0.00 | 0.00 | 0.00 | 39 | 1012.0 |
| 20260906021003 | 32 | 118 | 4.8 | 12.9 | 0.00 | 0.00 | 0.00 | 39 | 1012.0 |
| 20260906020503 | 32 | 121 | 4.8 | 9.7 | 0.00 | 0.00 | 0.00 | 38 | 1012.0 |
| 20260906020003 | 32 | 121 | 4.8 | 8.0 | 0.00 | 0.00 | 0.00 | 38 | 1011.9 |
| 20260906015503 | 32 | 122 | 4.8 | 8.0 | 0.00 | 0.00 | 0.00 | 38 | 1011.9 |
| 20260906015003 | 32 | 123 | 4.8 | 8.0 | 0.00 | 0.00 | 0.00 | 38 | 1011.9 |
| 20260906014524 | 32 | 123 | 4.8 | 8.0 | 0.00 | 0.00 | 0.00 | 38 | 1011.9 |
| 20260906014003 | 33 | 124 | 4.8 | 8.0 | 0.00 | 0.00 | 0.00 | 38 | 1011.8 |
| 20260906013503 | 33 | 126 | 4.8 | 8.0 | 0.00 | 0.00 | 0.00 | 38 | 1011.8 |
| 20260906013003 | 33 | 127 | 4.8 | 8.0 | 0.00 | 0.00 | 0.00 | 37 | 1011.5 |
| 20260906012503 | 33 | 128 | 4.8 | 11.3 | 0.00 | 0.00 | 0.00 | 37 | 1011.5 |
| 20260906012003 | 33 | 122 | 4.8 | 11.3 | 0.00 | 0.00 | 0.00 | 37 | 1011.3 |
| 20260906011503 | 33 | 109 | 6.4 | 12.9 | 0.00 | 0.00 | 0.00 | 36 | 1011.2 |
| 20260906011003 | 33 | 109 | 6.4 | 12.9 | 0.00 | 0.00 | 0.00 | 36 | 1011.1 |
| 20260906010503 | 34 | 113 | 6.4 | 11.3 | 0.00 | 0.00 | 0.00 | 36 | 1011.0 |
| 20260906010024 | 34 | 116 | 6.4 | 12.9 | 0.00 | 0.00 | 0.00 | 35 | 1011.1 |
| 20260906005503 | 34 | 118 | 8.0 | 17.7 | 0.00 | 0.00 | 0.00 | 35 | 1011.0 |
| 20260906005003 | 35 | 115 | 8.0 | 17.7 | 0.00 | 0.00 | 0.00 | 34 | 1011.0 |
| 20260906004503 | 35 | 115 | 8.0 | 17.7 | 0.00 | 0.00 | 0.00 | 34 | 1010.9 |
| 20260906004024 | 35 | 117 | 8.0 | 17.7 | 0.00 | 0.00 | 0.00 | 34 | 1010.9 |
| 20260906003503 | 35 | 126 | 9.7 | 16.1 | 0.00 | 0.00 | 0.00 | 33 | 1010.8 |
| 20260906003003 | 35 | 127 | 11.3 | 24.1 | 0.00 | 0.00 | 0.00 | 33 | 1010.8 |
| 20260906002503 | 35 | 120 | 11.3 | 24.1 | 0.00 | 0.00 | 0.00 | 33 | 1010.9 |
| 20260906002003 | 35 | 118 | 11.3 | 19.3 | 0.00 | 0.00 | 0.00 | 33 | 1010.9 |
| 20260906001524 | 35 | 122 | 11.3 | 19.3 | 0.00 | 0.00 | 0.00 | 33 | 1010.9 |
| 20260906001003 | 36 | 131 | 9.7 | 22.5 | 0.00 | 0.00 | 0.00 | 33 | 1010.9 |
| 20260906000503 | 36 | 117 | 11.3 | 22.5 | 0.00 | 0.00 | 0.00 | 33 | 1010.7 |
| 20260906000003 | 36 | 110 | 11.3 | 20.9 | 0.00 | 0.00 | 0.00 | 33 | 1010.7 |
| 20260905235503 | 36 | 119 | 11.3 | 19.3 | 0.00 | 0.00 | 0.00 | 33 | 1010.6 |
| 20260905235024 | 36 | 121 | 11.3 | 19.3 | 0.00 | 0.00 | 0.00 | 33 | 1010.5 |
| 20260905234503 | 36 | 128 | 11.3 | 24.1 | 0.00 | 0.00 | 0.00 | 32 | 1010.5 |
| 20260905234003 | 36 | 136 | 12.9 | 27.4 | 0.00 | 0.00 | 0.00 | 32 | 1010.5 |
| 20260905233524 | 36 | 125 | 11.3 | 27.4 | 0.00 | 0.00 | 0.00 | 32 | 1010.6 |
| 20260905233003 | 36 | 108 | 11.3 | 20.9 | 0.00 | 0.00 | 0.00 | 32 | 1010.5 |
| 20260905232503 | 36 | 111 | 9.7 | 24.1 | 0.00 | 0.00 | 0.00 | 32 | 1010.5 |
| 20260905232003 | 36 | 120 | 11.3 | 24.1 | 0.00 | 0.00 | 0.00 | 32 | 1010.6 |
| 20260905231524 | 36 | 124 | 12.9 | 22.5 | 0.00 | 0.00 | 0.00 | 32 | 1010.5 |
| 20260905231003 | 36 | 122 | 11.3 | 22.5 | 0.00 | 0.00 | 0.00 | 32 | 1010.4 |
| 20260905230503 | 36 | 114 | 12.9 | 27.4 | 0.00 | 0.00 | 0.00 | 32 | 1010.4 |
| 20260905230024 | 36 | 112 | 14.5 | 27.4 | 0.00 | 0.00 | 0.00 | 31 | 1010.4 |
| 20260905225503 | 36 | 113 | 12.9 | 25.7 | 0.00 | 0.00 | 0.00 | 31 | 1010.4 |
| 20260905225003 | 36 | 117 | 11.3 | 20.9 | 0.00 | 0.00 | 0.00 | 31 | 1010.4 |
| 20260905224524 | 36 | 132 | 12.9 | 27.4 | 0.00 | 0.00 | 0.00 | 31 | 1010.4 |
| 20260905224024 | 36 | 150 | 12.9 | 27.4 | 0.00 | 0.00 | 0.00 | 32 | 1010.5 |
| 20260905223503 | 36 | 144 | 9.7 | 20.9 | 0.00 | 0.00 | 0.00 | 32 | 1010.5 |
| 20260905223003 | 36 | 129 | 11.3 | 22.5 | 0.00 | 0.00 | 0.00 | 32 | 1010.6 |
| 20260905222524 | 36 | 114 | 12.9 | 22.5 | 0.00 | 0.00 | 0.00 | 32 | 1010.5 |
| 20260905222024 | 36 | 103 | 12.9 | 25.7 | 0.00 | 0.00 | 0.00 | 32 | 1010.6 |
| 20260905221524 | 36 | 110 | 11.3 | 25.7 | 0.00 | 0.00 | 0.00 | 32 | 1010.6 |
| 20260905221003 | 36 | 119 | 9.7 | 19.3 | 0.00 | 0.00 | 0.00 | 31 | 1010.6 |
| 20260905220503 | 36 | 128 | 11.3 | 27.4 | 0.00 | 0.00 | 0.00 | 32 | 1010.6 |
| 20260905220003 | 36 | 134 | 11.3 | 27.4 | 0.00 | 0.00 | 0.00 | 32 | 1010.8 |
| 20260905215503 | 36 | 123 | 9.7 | 20.9 | 0.00 | 0.00 | 0.00 | 32 | 1010.8 |